Klamath Falls, OR

9:42 PM PDT on May 29, 2017 (GMT -0700)
Klamath Falls International

Weather History for KLMT - March, 2012

Change the Weather History Date:

Tuesday, March 6, 2012

  Actual Average Record
Temperature  
Mean Temperature 28 °F 38 °F  
Max Temperature 33 °F 49 °F 65 °F (2015)
Min Temperature 22 °F 26 °F 8 °F (1956)
Degree Days  
Heating Degree Days 37 27  
Month to date heating degree days 210 167  
Since 1 July heating degree days 4888 5008  
Cooling Degree Days 0 0  
Month to date cooling degree days 0 0  
Year to date cooling degree days 0 0  
Moisture  
Dew Point 17 °F    
Average Humidity 62    
Maximum Humidity 81    
Minimum Humidity 47    
Precipitation  
Precipitation T in 0.03 in 0.32 in (1960)
Month to date precipitation 0.02 0.28  
Year to date precipitation 1.96 4.05  
Sea Level Pressure  
Sea Level Pressure 29.98 in    
Wind  
Wind Speed 15 mph (NNW)    
Max Wind Speed 29 mph    
Max Gust Speed 35 mph    
Visibility 9 miles    
Events Snow    
T = Trace of Precipitation, MM = Missing Value Source: NWS Daily Summary

Daily Weather History Graph

Daily Weather History Graph

Search for Another Location

Airport or City:

Trip Planner

Search our weather history database for the weather conditions in past years. The results will help you decide how hot, cold, wet, or windy it might be!

Date:

Astronomy

Mar. 06, 2012 Rise Set
Actual Time 6:32 AM PST 6:03 PM PST
Civil Twilight 6:05 AM PST 6:31 PM PST
Nautical Twilight 5:32 AM PST 7:04 PM PST
Astronomical Twilight 5:00 AM PST 7:36 PM PST
Moon 4:35 PM PST (3/6) 5:13 AM PST (3/6)
Length of Visible Light 12h 26m
Length of Day
11h 30m
Waxing Gibbous, 97% of the Moon is Illuminated
Mar 6
Waxing Gibbous
Mar 8
Full
Mar 14
Last Quarter
Mar 22
New
Mar 30
First Quarter

Hourly Weather History & Observations

Time (PST) Temp. Windchill Dew Point Humidity Pressure Visibility Wind Dir Wind Speed Gust Speed Precip Events Conditions
12:44 AM 30.2 °F 16.8 °F 24.8 °F 80% 29.80 in 3.0 mi NW 23.0 mph 27.6 mph 0.00 in Snow Light Snow
12:53 AM 30.9 °F 18.7 °F 24.1 °F 76% 29.79 in 3.0 mi NW 19.6 mph - 0.00 in Snow Light Snow
1:14 AM 30.2 °F 17.4 °F 21.2 °F 69% 29.82 in 9.0 mi NNW 20.7 mph 27.6 mph 0.00 in   Overcast
1:53 AM 28.9 °F 19.2 °F 19.0 °F 67% 29.82 in 10.0 mi NW 11.5 mph 21.9 mph 0.00 in   Scattered Clouds
2:53 AM 28.0 °F 17.0 °F 18.0 °F 66% 29.82 in 10.0 mi NW 13.8 mph - N/A   Clear
3:53 AM 26.1 °F 19.4 °F 18.0 °F 71% 29.83 in 10.0 mi NW 5.8 mph - N/A   Scattered Clouds
4:53 AM 24.1 °F 18.2 °F 19.0 °F 81% 29.87 in 10.0 mi NW 4.6 mph - N/A   Partly Cloudy
5:53 AM 25.0 °F 13.1 °F 18.0 °F 75% 29.89 in 10.0 mi NNW 13.8 mph - N/A   Partly Cloudy
6:00 AM 26.6 °F 12.4 °F 17.6 °F 69% 29.88 in 8.0 mi NW 21.9 mph 27.6 mph 0.00 in Snow Light Snow
6:53 AM 25.0 °F 11.3 °F 16.0 °F 69% 29.92 in 9.0 mi NNW 18.4 mph - 0.00 in Snow Light Snow
7:12 AM 24.8 °F 11.5 °F 15.8 °F 69% 29.91 in 9.0 mi NNW 17.3 mph - N/A   Mostly Cloudy
7:53 AM 26.6 °F 12.7 °F 15.8 °F 64% 29.93 in 10.0 mi NNW 20.7 mph 26.5 mph N/A   Scattered Clouds
8:53 AM 26.1 °F 12.7 °F 12.9 °F 58% 29.99 in 10.0 mi NNW 18.4 mph 27.6 mph N/A   Scattered Clouds
9:53 AM 30.0 °F 18.3 °F 12.9 °F 49% 29.99 in 10.0 mi North 17.3 mph 27.6 mph N/A   Scattered Clouds
10:53 AM 28.9 °F 16.9 °F 14.0 °F 54% 30.01 in 10.0 mi NNW 17.3 mph 29.9 mph N/A   Mostly Cloudy
11:53 AM 30.0 °F 17.2 °F 16.0 °F 56% 30.02 in 10.0 mi NNW 20.7 mph - 0.00 in Snow Light Snow
12:21 PM 30.2 °F 18.9 °F 15.8 °F 55% 29.97 in 9.0 mi NW 16.1 mph - 0.00 in   Mostly Cloudy
12:53 PM 30.9 °F 19.4 °F 14.0 °F 50% 30.02 in 10.0 mi NNW 17.3 mph 24.2 mph 0.00 in   Mostly Cloudy
1:53 PM 33.1 °F 20.9 °F 18.0 °F 54% 30.01 in 10.0 mi NW 21.9 mph 27.6 mph N/A   Mostly Cloudy
2:53 PM 32.0 °F 20.5 °F 17.6 °F 55% 29.99 in 10.0 mi NNW 18.4 mph 26.5 mph N/A   Mostly Cloudy
3:53 PM 32.0 °F 18.9 °F 17.6 °F 55% 30.06 in 10.0 mi NNW 24.2 mph 28.8 mph N/A   Scattered Clouds
4:53 PM 32.0 °F 18.9 °F 16.0 °F 52% 30.08 in 10.0 mi NNW 24.2 mph 28.8 mph N/A   Mostly Cloudy
5:53 PM 30.2 °F 17.8 °F 17.6 °F 60% 30.04 in 10.0 mi NNW 19.6 mph - N/A   Mostly Cloudy
6:53 PM 28.0 °F 17.5 °F 15.1 °F 58% 30.12 in 7.0 mi NNW 12.7 mph - N/A   Scattered Clouds
7:53 PM 28.0 °F 17.5 °F 12.9 °F 53% 30.13 in 7.0 mi North 12.7 mph - N/A   Partly Cloudy
8:53 PM 26.1 °F 15.6 °F 12.9 °F 58% 30.17 in 10.0 mi North 11.5 mph - N/A   Clear
9:53 PM 24.1 °F 13.1 °F 12.9 °F 62% 30.18 in 7.0 mi North 11.5 mph - N/A   Clear
10:53 PM 24.1 °F 12.0 °F 12.9 °F 62% 30.18 in 10.0 mi North 13.8 mph - N/A   Clear
11:53 PM 23.0 °F - 12.9 °F 65% 30.20 in 10.0 mi Calm Calm - N/A   Clear